SM2GSR-2 Weather Reports


time (UTC)temp
F
wind
direction
speed
knots
gust
knots
rain 1hr
in
rain 24hr
in
rain mn
in
humidity
%
barometer
mb
20260503204504 29 240 0.0 0.0 0.00 0.00 0.00 77 1000.6
20260503204004 29 240 0.0 0.0 0.00 0.00 0.00 79 1000.6
20260503203504 29 240 0.0 0.0 0.00 0.00 0.00 78 1000.7
20260503202503 28 240 0.0 0.0 0.00 0.00 0.00 76 1000.7
20260503202004 28 240 0.0 0.0 0.00 0.00 0.00 75 1000.7
20260503201504 28 240 0.0 0.0 0.00 0.00 0.00 75 1000.8
20260503201004 29 240 0.0 0.0 0.00 0.00 0.00 75 1000.8
20260503200504 29 240 0.0 0.0 0.00 0.00 0.00 75 1000.9
20260503200004 29 240 0.0 0.0 0.00 0.00 0.00 75 1000.9
20260503195503 29 240 0.0 0.0 0.00 0.00 0.00 74 1001.0
20260503195003 29 240 0.0 0.0 0.00 0.00 0.00 73 1000.9
20260503194504 29 240 0.0 0.0 0.00 0.00 0.00 73 1000.9
20260503194004 29 240 0.0 0.0 0.00 0.00 0.00 73 1000.9
20260503193503 30 240 0.0 0.0 0.00 0.00 0.00 73 1000.9
20260503193003 30 240 0.0 0.0 0.00 0.00 0.00 71 1000.9
20260503192504 30 240 0.0 0.0 0.00 0.00 0.00 71 1000.9
20260503192004 30 240 0.0 0.0 0.00 0.00 0.00 70 1000.9
20260503191504 31 240 0.0 0.0 0.00 0.00 0.00 70 1000.9
20260503191003 31 240 0.0 0.0 0.00 0.00 0.00 69 1000.9
20260503190504 31 240 0.0 0.0 0.00 0.00 0.00 68 1000.8
20260503190004 32 240 0.0 0.0 0.00 0.00 0.00 67 1000.8
20260503185503 32 240 0.0 0.0 0.00 0.00 0.00 66 1000.8
20260503185004 33 240 0.0 0.0 0.00 0.00 0.00 65 1000.8
20260503184503 33 240 0.0 0.0 0.00 0.00 0.00 64 1000.9
20260503184004 34 240 0.0 0.0 0.00 0.00 0.00 63 1000.9
20260503183503 34 240 0.0 0.0 0.00 0.00 0.00 61 1000.9
20260503183004 35 240 0.0 0.0 0.00 0.00 0.00 60 1000.8
20260503182503 36 240 0.0 0.0 0.00 0.00 0.00 59 1000.8
20260503182005 36 240 0.0 0.0 0.00 0.00 0.00 57 1000.8
20260503181004 38 240 0.0 0.0 0.00 0.00 0.00 53 1000.9
20260503175503 40 240 0.0 0.0 0.00 0.00 0.00 47 1000.9
20260503175004 40 240 0.0 0.0 0.00 0.00 0.00 45 1000.9
20260503174504 41 240 0.0 0.0 0.00 0.00 0.00 44 1001.0
20260503174004 41 240 0.0 0.0 0.00 0.00 0.00 43 1001.0
20260503173504 41 297 0.0 0.9 0.00 0.00 0.00 43 1001.0
20260503172504 42 292 0.9 2.6 0.00 0.00 0.00 41 1001.0
20260503172004 42 241 0.0 2.6 0.00 0.00 0.00 41 1001.0
20260503171503 42 290 0.0 0.0 0.00 0.00 0.00 41 1001.1
20260503171003 42 285 0.0 0.0 0.00 0.00 0.00 41 1001.1
20260503170503 42 272 0.0 6.1 0.00 0.00 0.00 41 1001.0
20260503151003 42 273 0.0 0.0 0.00 0.00 0.00 40 1001.5
20260503150504 42 296 0.0 0.0 0.00 0.00 0.00 41 1001.6
20260503131004 42 253 0.9 7.0 0.00 0.00 0.00 41 1002.2
20260503130503 43 276 4.3 10.4 0.00 0.00 0.00 43 1002.3
20260503110504 42 276 2.6 7.0 0.00 0.00 0.00 42 1002.3
20260503090505 41 310 4.3 10.4 0.00 0.00 0.00 46 1002.6
20260503081503 40 280 5.2 11.3 0.00 0.00 0.00 45 1002.7
20260503081004 40 275 5.2 10.4 0.00 0.00 0.00 45 1002.7
20260503080504 41 321 6.1 12.2 0.00 0.00 0.00 44 1002.5
20260503072504 40 305 7.8 13.0 0.00 0.00 0.00 47 1002.4
20260503071504 39 275 4.3 8.7 0.00 0.00 0.00 47 1002.3
20260503071004 39 319 7.0 11.3 0.00 0.00 0.00 46 1002.3
20260503055003 37 290 3.5 7.8 0.00 0.00 0.00 55 1002.1
20260503054504 37 321 0.9 7.8 0.00 0.00 0.00 56 1002.2
20260503054004 37 245 1.7 7.0 0.00 0.00 0.00 57 1002.2
20260503053503 37 305 5.2 10.4 0.00 0.00 0.00 57 1002.2
20260503053003 36 326 6.1 11.3 0.00 0.00 0.00 57 1002.2
20260503052504 36 305 7.0 10.4 0.00 0.00 0.00 58 1002.2
20260503052004 36 316 5.2 8.7 0.00 0.00 0.00 61 1002.3
20260503051503 36 304 6.1 11.3 0.00 0.00 0.00 61 1002.2
20260503051004 36 301 6.1 12.2 0.00 0.00 0.00 62 1002.1
20260503050503 35 299 7.8 10.4 0.00 0.00 0.00 63 1002.1
20260503050005 35 294 6.1 10.4 0.00 0.00 0.00 65 1002.1
20260503045504 35 311 5.2 10.4 0.00 0.00 0.00 66 1002.1
20260503045004 35 311 8.7 12.2 0.00 0.00 0.00 67 1002.0
20260503044504 35 295 5.2 10.4 0.00 0.00 0.00 69 1001.9
20260503043503 34 308 4.3 10.4 0.00 0.00 0.00 71 1001.8
20260503043004 34 307 6.1 10.4 0.00 0.00 0.00 72 1001.7
20260503042004 34 309 4.3 10.4 0.00 0.00 0.00 74 1001.7
20260503041504 34 295 4.3 8.7 0.00 0.00 0.00 75 1001.7
20260503041004 33 303 5.2 10.4 0.00 0.00 0.00 75 1001.6
20260503040503 33 301 4.3 12.2 0.00 0.00 0.00 76 1001.6
20260503040004 33 312 7.0 12.2 0.00 0.00 0.00 76 1001.6
20260503035503 32 288 3.5 8.7 0.00 0.00 0.00 78 1001.6
20260503035004 32 303 6.1 10.4 0.00 0.00 0.00 79 1001.6
20260503034504 31 311 2.6 6.1 0.00 0.00 0.00 81 1001.6
20260503034004 30 302 0.0 0.0 0.00 0.00 0.00 82 1001.6
20260503033504 29 302 0.0 0.0 0.00 0.00 0.00 83 1001.6
20260503033004 29 295 0.0 0.0 0.00 0.00 0.00 84 1001.5
20260503032503 28 295 0.0 0.0 0.00 0.00 0.00 85 1001.5
20260503031504 27 249 0.0 0.0 0.00 0.00 0.00 85 1001.4
20260503031004 27 249 0.0 0.0 0.00 0.00 0.00 85 1001.4
20260503030004 28 249 0.0 0.0 0.00 0.00 0.00 84 1001.4
20260503025504 28 249 0.0 0.0 0.00 0.00 0.00 84 1001.3
20260503025003 28 249 0.0 0.0 0.00 0.00 0.00 83 1001.3
20260503024504 28 249 0.0 0.0 0.00 0.00 0.00 84 1001.3
20260503024004 28 249 0.0 0.0 0.00 0.00 0.00 84 1001.2
20260503023504 28 249 0.0 0.0 0.00 0.00 0.00 84 1001.2
20260503023004 28 250 0.0 0.0 0.00 0.00 0.00 85 1001.2
20260503022503 27 250 0.0 0.0 0.00 0.00 0.00 87 1001.0
20260503021504 26 238 0.0 0.0 0.00 0.00 0.00 85 1000.9
20260503021003 27 238 0.0 0.0 0.00 0.00 0.00 85 1000.9
20260503020503 27 238 0.0 0.0 0.00 0.00 0.00 84 1000.8
20260503020004 27 238 0.0 0.0 0.00 0.00 0.00 84 1000.8
20260503015004 27 238 0.0 0.0 0.00 0.00 0.00 84 1000.6
20260503014504 27 238 0.0 0.0 0.00 0.00 0.00 84 1000.6
20260503014004 27 238 0.0 0.0 0.00 0.00 0.00 84 1000.7
20260503013504 28 250 0.0 0.0 0.00 0.00 0.00 84 1000.6
20260503013003 28 250 0.0 0.0 0.00 0.00 0.00 83 1000.6
20260503012504 28 250 0.0 0.0 0.00 0.00 0.00 85 1000.6
20260503011503 27 268 0.0 0.0 0.00 0.00 0.00 84 1000.6
20260503010504 27 273 0.0 0.0 0.00 0.00 0.00 83 1000.5
20260503010004 27 274 0.0 0.0 0.00 0.00 0.00 81 1000.5
20260503005504 28 274 0.0 0.0 0.00 0.00 0.00 80 1000.5
20260503005003 28 274 0.0 0.0 0.00 0.00 0.00 81 1000.4
20260503004004 29 275 0.0 0.0 0.00 0.00 0.00 79 1000.4
20260503003504 29 299 0.0 0.0 0.00 0.00 0.00 79 1000.5
20260503003003 29 299 0.0 0.0 0.00 0.00 0.00 78 1000.5
20260503002503 29 300 0.0 0.0 0.00 0.00 0.00 80 1000.4
20260503001504 29 265 0.0 0.0 0.00 0.00 0.00 80 1000.4
20260503001004 29 265 0.0 0.0 0.00 0.00 0.00 79 1000.4
20260503000504 29 265 0.0 0.0 0.00 0.00 0.00 78 1000.4
20260503000005 29 263 0.0 0.0 0.00 0.00 0.00 78 1000.5
20260502235505 30 263 0.0 0.0 0.00 0.00 0.00 77 1000.5
20260502234505 31 244 0.0 0.0 0.00 0.00 0.00 75 1000.4
20260502234009 32 244 0.0 0.0 0.00 0.00 0.00 73 1000.4
20260502233504 32 244 0.0 0.0 0.00 0.00 0.00 73 1000.4
20260502233005 33 244 0.0 0.0 0.00 0.00 0.00 72 1000.4
20260502232506 33 244 0.0 0.0 0.00 0.00 0.00 72 1000.3
20260502232005 34 244 0.0 0.0 0.00 0.00 0.00 72 1000.3
20260502231504 34 270 0.9 7.8 0.00 0.00 0.00 72 1000.3
20260502231004 34 287 5.2 7.8 0.00 0.00 0.00 71 1000.2
20260502230504 34 256 4.3 7.8 0.00 0.00 0.00 71 1000.3
20260502230004 34 288 4.3 8.7 0.00 0.00 0.00 71 1000.3
20260502225503 34 274 4.3 10.4 0.00 0.00 0.00 71 1000.3
20260502225004 34 268 4.3 7.8 0.00 0.00 0.00 71 1000.5
20260502224504 34 291 3.5 6.1 0.00 0.00 0.00 71 1000.5
20260502223004 34 256 0.9 7.0 0.00 0.00 0.00 70 1000.4
20260502222004 34 274 0.0 0.0 0.00 0.00 0.00 69 1000.5
20260502221004 34 282 0.0 0.0 0.00 0.00 0.00 68 1000.7
20260502220504 34 289 0.0 0.0 0.00 0.00 0.00 68 1000.7
20260502220004 34 283 0.0 0.0 0.00 0.00 0.00 67 1000.7
20260502215503 34 257 0.0 2.6 0.00 0.00 0.00 67 1000.6
20260502215004 35 285 2.6 5.2 0.00 0.00 0.00 65 1000.7
20260502214504 35 283 1.7 8.7 0.00 0.00 0.00 65 1000.7
20260502213004 36 307 4.3 6.1 0.00 0.00 0.00 65 1000.7
20260502212503 36 300 3.5 7.0 0.00 0.00 0.00 65 1000.6
20260502211504 36 264 4.3 7.8 0.00 0.00 0.00 64 1000.6
20260502211003 36 299 2.6 8.7 0.00 0.00 0.00 64 1000.6
20260502210503 36 278 0.9 8.7 0.00 0.00 0.00 63 1000.6
20260502210004 36 283 4.3 10.4 0.00 0.00 0.00 64 1000.6
20260502205005 35 292 1.7 8.7 0.00 0.00 0.00 64 1000.6